User: anonymous   Login
Location: Maiden
(35.5760°N, 81.2120°W)
Time: 05:27:29
(UTC-04:00)
Language:

Cosmos 2151 - Orbit

View from above orbital plane
View from above orbital plane
View from above satellite
View from above satellite

Ground track
Ground track

The orbit data is extracted from the following two-line orbital elements,

1 21422U 91042A   17117.89384263 +.00000247 +00000-0 +21884-4 0  9997
2 21422 082.4979 294.3046 0015825 101.5721 258.7276 14.91808082379926
Epoch (UTC): 27 April 2017 21:27:08
Eccentricity: 0.0015825
inclination: 82.4979°
perigee height: 581 km
apogee height: 603 km
right ascension of ascending node: 294.3046°
argument of perigee: 101.5721°
revolutions per day: 14.91808082
mean anomaly at epoch: 258.7276°
orbit number at epoch: 37992

The dashed part of the orbit path shows where the satellite is in the earth's shadow,  

DLR